Погода в Посёлке им. Кирова

Россия / Владимирская область     56°27′04″N   41°01′52″E
темп.,
°C
ветер,
м/с
пор.,
м/с
влажн.,
%
обл.,
%
осадки,
мм/ч
давл.,
гПа
погр.,
м
7 марта, вс
вс700:00−15юз23910 0.0 101224
03:00−15ююз35960 0.0 100998
06:00−11ю5119268 0.0 1005312
09:00−8ююз8149084 0.1 1001877
12:00−6ююз81392100 0.9 9961013
15:00−3ююз71294100 2.7 993946
18:00−3з4896100 2.6 991519
21:00−8з2285100 2.9 99121
8 марта, пн
пн800:00−12зюз338642 0.0 99225
03:00−10з379470 0.8 994195
06:00−12зюз349367 0.0 99488
09:00−9юз239483 0.3 995223
12:00−7ссз2388100 0.3 997504
15:00−5сз5679100 0.5 10001036
18:00−9зсз369291 0.1 1003157
21:00−11сз369675 0.1 1006160
9 марта, вт
вт900:00−14ссз349788 0.1 1008100
03:00−17ссз349886 0.1 101060
06:00−18ссз369784 0.1 1012182
09:00−18ссз359583 0.1 1014255
12:00−15ссз358791 0.0 1015486
15:00−13ссз468796 0.1 1016635
18:00−17ссз3594100 0.1 1017142
21:00−20ссз3598100 0.1 1020115
10 марта, ср
ср1000:00−23ссз359871 0.0 1021106
03:00−26ссз359849 0.0 102385
06:00−28ссз34987 0.0 102477
09:00−24с36944 0.0 1026255
12:00−19с348128 0.0 1027479
15:00−15ссз357814 0.0 1027753
18:00−19ссз2392100 0.0 102722
21:00−22сз239563 0.0 102822
11 марта, чт
чт1100:00−23сз23940 0.0 102923
03:00−24зсз23930 0.0 103024
06:00−25зсз23970 0.0 103027
09:00−20зсз24960 0.0 1031171
12:00−13зсз348545 0.0 1031375
15:00−10з338557 0.0 1031449
18:00−15зюз239336 0.0 103122
21:00−17юз229118 0.0 103220